Regional Weather Roundup
Issued by NWS

Home | Current Version | Previous Version | Text Only | Print | Product List | Glossary On
Versions: 1 2 3 4 5 6 7 8 9 10 11 12 13 14 15 16 17 18 19 20 21 22 23 24 25 26 27 28 29 30 31 32 33 34 35 36 37 38 39 40 41 42 43 44 45 46 47 48 49 50
000
ASUS43 KDTX 240801
RWRMI
MICHIGAN HOURLY REGIONAL WEATHER ROUNDUP
NATIONAL WEATHER SERVICE DETROIT/PONTIAC MI
400 AM EDT FRI OCT 24 2014

NOTE: "FAIR" INDICATES FEW OR NO CLOUDS BELOW 12,000 FEET WITH NO
SIGNIFICANT WEATHER AND/OR OBSTRUCTION TO VISIBILITY.

MIZ047>049-052>055-059>063-066>070-074>076-081>083-240900-
SOUTHEAST LOWER MICHIGAN

CITY           SKY/WX    TMP DP  RH WIND       PRES   REMARKS
ADRIAN         PTCLDY    35  33  92 CALM      30.10S
ALMA           PTCLDY    38  36  91 CALM      30.06F
ANN ARBOR      PTCLDY    30  28  92 W3        30.08F
BAD AXE        FOG       32  32 100 CALM      30.07F VSB 3/4
CARO           MOCLDY    32  31  96 CALM      30.06F
DETROIT CITY   MOCLDY    41  37  86 CALM      30.09S
DETROIT        CLOUDY    39  35  86 S3        30.09F
FLINT          PTCLDY    35  33  92 CALM      30.08F
GROSSE ILE     MOCLDY    39  37  93 W5        30.07F
HILLSDALE      CLEAR     34  34 100 CALM      30.08S FOG
HOWELL         MOCLDY    36  34  93 CALM      30.07F

CITY           SKY/WX    TMP DP  RH WIND       PRES   REMARKS
JACKSON        CLEAR     36  33  89 CALM      30.08S
LAMBERTVILLE   MOCLDY    37  34  87 CALM      30.10F FOG
LANSING        PTCLDY    41  36  82 CALM      30.08S
LAPEER         FAIR      32  31  99 CALM      30.07F
MASON          CLEAR     36  35  95 S3        30.08S
MONROE         MOCLDY    36  36 100 CALM      30.08F FOG
MT. CLEMENS    MOCLDY    37  37  99 CALM      30.06S
PONTIAC        PTCLDY    36  33  89 CALM      30.07F
PORT HOPE        N/A     41  38  89 SW6       30.05S
PORT HURON     MOCLDY    32  32 100 CALM      30.09S FOG
TRI CITIES     CLOUDY    44  37  76 SW5       30.06F
TROY           PTCLDY    40  37  86 CALM      30.10S
SAGINAW HB     MOCLDY    37  37 100 CALM      30.05F
$$
MIZ043>046-050>051-056>058-064>065-071>073-077>080-240900-
SOUTHWEST LOWER MICHIGAN

CITY           SKY/WX    TMP DP  RH WIND       PRES   REMARKS
BATTLE CREEK   CLOUDY    44  39  82 S3        30.07F
BENTON HARBOR  CLOUDY    51  42  71 S5        30.05F
BIG RAPIDS     CLOUDY    44  44 100 S5        30.03F
COLDWATER      CLOUDY    38  37  97 CALM      30.08S FOG
FREMONT        CLOUDY    48  44  85 S3        30.03F
HOLLAND        MOCLDY    49  42  77 S6        30.05F
GRAND RAPIDS   PTCLDY    46  41  82 CALM      30.05F
IONIA          FAIR      41  39  93 S5        30.05F
KALAMAZOO      MOCLDY    48  41  76 SE3       30.06
LUDINGTON      CLOUDY    52  48  87 S5        30.03R
MARSHALL       CLEAR     34  33  96 S5        30.07F FOG     WCI  29
MOUNT PLEASANT CLOUDY    44  42  91 CALM      30.04F
MUSKEGON       CLOUDY    50  44  80 E5        30.04F
SOUTH HAVEN    CLOUDY    53  44  72 SW5       30.05F
$$
MIZ016>042-240900-
NORTHERN LOWER MICHIGAN

CITY           SKY/WX    TMP DP  RH WIND       PRES   REMARKS
ALPENA         CLOUDY    33  31  92 CALM      30.03F
BEAVER ISLAND  CLOUDY    52  48  89 SW6       30.01S
BELLAIRE       CLOUDY    45  42  89 CALM      30.03S
CADILLAC       MOCLDY    44  41  91 CALM      30.03R
CHARLEVOIX     CLOUDY    47  43  84 S3        30.05S
FRANKFORT      CLOUDY    53  47  78 S3        30.02S
GAYLORD        CLOUDY    42  37  82 CALM      30.02F
GRAYLING       CLOUDY    39  38  95 CALM      30.04S
HARBOR SPRINGS CLOUDY    46  41  83 CALM      30.02S
HOUGHTON LAKE  MOCLDY    38  37  97 CALM      30.04F
OSCODA         CLOUDY    35  34  96 CALM      30.04F
PELLSTON       CLOUDY    43  40  89 CALM      30.02F
ROGERS CITY    CLOUDY    39  37  93 SW3       30.03F
TRAVERSE CITY  CLOUDY    48  42  80 CALM      30.02R
$$
MIZ007>008-015-240900-
EASTERN UPPER MICHIGAN

CITY           SKY/WX    TMP DP  RH WIND       PRES   REMARKS
KINROSS        CLOUDY    45  43  93 SE3       30.01S
MACKINAC ISLAN CLOUDY    47  43  86 S5        30.01F
NEWBERRY       CLOUDY    47  47  99 SW6       29.99S FOG
S. S. MARIE    CLOUDY    42  39  89 CALM      30.02S
MUNISING         N/A     49  46  90 CALM      29.98F
$$
MIZ004>006-011>014-085-240900-
CENTRAL UPPER MICHIGAN

CITY           SKY/WX    TMP DP  RH WIND       PRES   REMARKS
MANISTIQUE     CLOUDY    48  48  99 SW3       30.00S FOG
ESCANABA       CLOUDY    46  45  93 SW3       29.99F
MENOMINEE      CLOUDY    48  45  87 SW3       30.00S
SAWYER-GWINN   FOG       44  42  95 SW5       29.98S VSB 3/4
$$
MIZ001>003-009>011-084-240900-
WESTERN UPPER MICHIGAN

CITY           SKY/WX    TMP DP  RH WIND       PRES   REMARKS
IRON MOUNTAIN  CLOUDY    45  43  93 W7        29.98S FOG
HOUGHTON       CLOUDY    46  44  93 CALM      29.95F FOG
COPPER HARBOR    N/A     49  46  90 CALM      29.95F
IRONWOOD       MOCLDY    46  46 100 S9        29.93F
$$

ABBREVIATIONS USED IN REMARKS
   TC - TEMPERATURE IN CELSIUS
  WCI - WIND CHILL INDEX
   HX - HEAT INDEX
  VSB - VISIBILITY




USA.gov is the U.S. government's official web portal to all federal, state and local government web resources and services.